CAPE
2 15 29 145 128 109 106 164 69 34 0 0 0 0 0 7 0 0 12 255 710 897 1064 1248 1610 1612 1664 1803 1644 1660 1547 1793 1826 1926 2002 2039 1914 1931 1936 1724 1596 1651 1769 1691 1538 1563 1369 1337 1315
35 30 41 9 66 25 73 34 38 33 3 0 0 0 7 1 111 99 230 635 857 910 968 1161 1881 1755 1428 1479 1694 1417 1611 1810 1993 1919 2099 1973 1744 1308 1492 1533 1547 1815 1702 1611 1548 1444 1368 1251 1278
43 172 21 42 28 23 34 34 32 1 5 20 6 9 13 124 91 80 262 687 923 1015 1053 1323 1629 1325 1743 1509 1688 1720 1667 1533 1393 1871 1781 1391 1371 1106 1328 1442 1565 1678 1516 1360 1409 1415 1271 1045 638
300 77 98 48 59 119 91 43 28 41 51 28 0 26 34 81 90 199 513 686 655 783 1071 1270 1331 1207 1309 1580 1641 1776 1816 1324 1552 1808 1655 1576 1501 1620 1657 1624 1688 1715 1680 1678 1628 1622 1347 618 728
31 35 5 15 29 65 140 78 58 89 66 56 27 24 44 86 136 275 447 486 614 870 945 739 1459 1539 1792 1498 1529 1423 1351 1342 1613 1714 1612 1617 1900 1877 1663 1571 1517 1501 1475 1391 1441 1398 1429 1446 665
67 49 6 2 29 46 86 78 126 108 95 59 32 32 40 111 123 239 261 273 585 782 982 863 1391 1534 1595 1434 1486 1588 1375 1262 1897 1702 1613 1809 1860 1760 1635 1514 1417 1374 1299 1286 1237 1229 1400 1535 1076
42 24 0 7 17 42 84 70 135 90 71 66 26 40 46 107 139 254 168 493 685 926 854 768 726 1111 1181 811 963 952 953 1211 1625 1366 1525 1577 1629 1631 1717 1795 2030 1875 1829 1767 1822 2028 2167 2303 1183
62 7 0 0 49 25 90 109 123 161 112 47 41 39 66 156 252 261 243 475 714 630 302 1097 730 348 1432 1615 1783 1828 1520 1570 1477 1293 1306 1466 1986 1782 1644 1156 1338 2241 1651 1850 1921 1703 1964 2339 1452
215 56 65 57 62 80 77 154 184 151 73 38 18 43 41 161 238 249 254 381 511 306 64 828 884 328 1074 1159 1420 1497 1373 1327 1462 1582 1611 730 1011 1005 1387 1622 2288 2381 2250 2115 2012 2033 1896 2053 1884
296 117 31 124 87 45 54 227 200 160 92 47 12 34 52 148 207 117 92 152 233 251 2 393 617 313 580 1209 1336 1012 639 889 996 1076 967 952 800 973 1611 1683 2376 2469 2701 2315 2336 1048 1843 2058 1453
238 122 17 80 93 77 90 284 222 191 112 34 34 6 42 134 143 74 54 55 45 38 2 0 435 433 659 679 721 500 693 841 995 1004 659 755 978 1023 1264 1325 1403 1501 1677 1487 1600 1017 1627 1492 1020
59 63 22 75 142 127 170 230 270 254 152 53 72 66 28 89 121 62 40 26 0 0 0 0 89 279 425 368 327 438 650 837 869 810 867 794 897 1209 1449 1413 1560 1556 1420 1590 1626 1419 1217 947 590
122 36 26 56 95 158 401 323 323 285 243 214 140 92 47 53 89 85 74 28 0 0 9 32 66 312 412 266 209 275 488 806 1091 1227 943 834 1054 1333 1462 1563 1800 1826 1671 1499 1353 1079 1126 1401 1219
13 58 86 98 261 314 346 349 347 352 317 229 197 158 71 79 95 108 102 67 18 0 29 71 69 196 349 385 347 395 450 844 1099 833 686 1054 1164 1279 1489 1605 1606 1533 1652 1739 1795 1575 1301 1091 963
5 165 362 330 426 457 448 344 388 282 329 282 206 131 69 91 108 113 139 94 34 0 0 74 187 235 402 354 365 498 504 542 770 1083 868 1091 1362 1522 1739 1669 1783 1671 1455 1417 1472 1301 1005 991 676
8 103 222 514 564 440 438 275 380 313 282 282 185 114 91 103 118 104 143 89 43 15 0 7 52 72 301 485 406 623 800 594 821 1162 1287 1068 1244 1645 1698 1915 1822 1422 1324 1313 1443 1334 914 292 386
3 46 81 422 451 403 394 120 303 308 369 265 121 94 92 111 120 105 73 32 51 48 68 180 51 28 319 503 387 634 1008 663 713 1037 1023 940 1112 1965 1939 2051 1660 1497 1322 914 982 631 441 19 43
2 1 4 158 210 309 276 112 326 352 408 345 142 122 92 69 112 102 32 6 22 45 100 199 117 140 558 437 532 804 810 723 699 827 1087 1060 976 1866 1802 1953 1801 1622 1425 1174 776 168 0 159 304
0 0 0 0 23 151 248 178 266 308 394 364 287 101 76 72 43 87 47 0 12 44 125 205 225 366 501 560 669 790 564 687 887 753 1132 866 592 1295 1490 1408 1664 1668 1365 835 928 487 0 9 290
0 0 0 0 0 23 0 0 189 283 359 381 324 173 75 6 57 44 4 0 0 34 129 196 285 308 308 350 574 697 740 419 508 844 966 637 596 986 1516 1415 1603 1644 1569 841 260 300 0 0 0
0 0 0 0 0 0 0 11 4 173 272 327 383 246 141 51 0 0 0 0 0 0 14 11 169 136 317 221 503 632 714 696 794 859 700 692 655 676 1248 1423 1568 1748 1593 1334 660 229 0 0 0
0 0 0 1 0 0 0 0 6 0 168 175 261 324 267 116 28 4 0 0 0 27 21 19 92 70 250 191 457 682 678 611 595 788 504 405 600 527 840 1329 1567 1737 1664 1588 1074 230 0 0 0
0 0 0 1 0 0 0 0 0 0 12 201 169 217 303 230 97 37 0 0 0 6 12 42 58 81 210 253 392 541 585 528 553 694 481 270 365 572 610 1189 1511 1782 1717 1688 1039 199 0 0 0
0 0 0 0 0 0 0 0 0 1 0 0 87 168 146 293 186 112 41 0 0 0 30 41 25 151 236 242 241 442 594 619 506 487 385 290 143 342 559 1022 1345 1730 1783 1820 1017 536 85 0 0
0 0 0 0 0 3 0 0 0 22 1 0 0 200 132 148 245 193 113 0 0 7 52 47 92 211 227 271 178 211 611 739 650 442 464 610 300 386 604 910 1242 1766 1807 1733 1293 712 384 27 0
0 0 0 0 0 0 0 0 7 0 0 9 5 63 230 173 215 266 193 3 0 0 65 80 150 206 312 313 332 128 287 519 648 669 663 643 459 461 591 1345 1245 1738 1898 1821 1498 1037 556 342 0
0 0 0 0 0 0 0 0 0 0 6 468 546 338 232 252 209 291 294 121 3 0 50 105 150 181 265 394 421 263 345 494 589 624 552 567 806 885 1535 1500 1378 1730 1964 1890 1675 1328 649 484 270
0 0 0 0 0 0 0 0 0 2 39 490 461 302 221 281 212 259 338 301 154 77 30 38 104 174 247 383 445 417 475 639 754 773 766 568 567 893 1321 1513 1589 1763 1960 1890 1775 1474 1040 595 505
0 0 0 0 0 0 0 0 0 0 16 183 431 464 400 295 235 294 314 310 286 202 171 74 109 201 283 365 427 453 474 533 652 740 809 832 732 755 969 1138 1651 1787 1957 1858 1826 1592 1344 703 610
0 0 0 0 0 0 0 0 0 0 0 59 201 542 551 519 360 279 272 299 239 262 279 200 110 306 332 347 384 423 458 420 449 588 643 823 882 707 639 666 889 1267 1719 1869 1877 1796 1437 1336 660
CIN
-117 -17 -11 -15 -5 -1 -4 -1 -30 -43 0 0 0 0 0 -82 0 0 -79 -53 -18 -11 -3 -3 0 0 0 0 0 0 0 0 0 0 0 -1 0 0 0 0 0 0 0 0 0 -1 -14 -30 -46
-16 -51 -26 -33 -1 -11 -5 -48 -22 -34 -56 0 0 0 -34 0 -75 -64 -17 -2 -13 -6 -4 -3 0 0 0 0 0 0 0 0 0 0 0 0 0 0 0 0 0 0 0 0 0 -1 -3 -8 -22
-99 -38 -31 -18 -19 -34 -28 -31 -46 -46 -65 -73 -87 -60 -72 -59 -85 -45 -27 -1 -2 -1 -4 -1 0 0 0 0 0 0 0 0 0 0 0 -1 -1 -5 0 -2 -1 0 -3 -1 -1 -7 -19 -29 -49
-32 -49 -35 -12 -28 -45 -28 -49 -89 -87 -50 -62 -9 -89 -80 -82 -85 -51 -1 -2 -7 -4 -3 0 0 0 0 0 0 0 0 0 0 0 0 0 -2 -3 0 -1 0 0 0 -2 -3 -1 -16 -59 -41
-153 -104 0 -6 -21 -42 -51 -54 -69 -85 -93 -118 -128 -92 -83 -51 -88 -57 -9 -11 -15 -1 -1 -5 0 0 0 0 0 0 0 -1 0 0 -3 -5 0 0 0 -6 -6 -5 -5 -15 -21 -35 -35 -17 -40
-143 -125 -1 -19 -21 -49 -59 -75 -49 -53 -98 -143 -107 -136 -85 -91 -98 -50 -43 -33 -13 -12 -2 -5 -1 0 0 0 0 0 -6 -10 0 -1 -9 -5 -4 -4 -9 -14 -19 -20 -16 -26 -44 -49 -46 -29 -3
-27 -142 0 0 -5 -36 -43 -64 -24 -65 -78 -132 -71 -135 -95 -58 -118 -56 -88 -3 -3 -1 -5 -21 -15 -2 0 -17 -16 -28 -36 -14 -6 -10 -12 -13 -10 -14 -10 -10 -9 -19 -12 -13 -10 -12 -16 -7 -9
-191 -56 -4 0 -1 -27 -66 -84 -53 -53 -84 -139 -166 -169 -111 -109 -52 -43 -46 0 0 -6 -58 -1 -26 -73 0 0 0 -1 -10 -3 -13 -16 -21 -14 -10 -19 -34 -81 -88 -23 -12 -13 -25 -31 -30 -11 -29
-97 -57 -135 -132 -125 -145 -113 -86 -90 -77 -56 -61 -153 -187 -179 -144 -82 -53 -65 -7 -3 -50 -147 -15 -23 -90 -15 -20 -11 -13 -16 -17 -12 -20 -32 -43 -62 -110 -100 -86 -45 -19 -9 -12 -19 -38 -51 -49 -52
-101 -86 -49 -133 -181 -34 -70 -93 -86 -80 -65 -97 -80 -201 -180 -151 -88 -134 -122 -110 -58 -76 -60 -80 -66 -108 -86 -27 -22 -49 -90 -42 -38 -52 -102 -129 -45 -23 -106 -120 -66 -42 -30 -29 -30 -106 -71 -66 -133
-157 -107 -105 -17 -43 -168 -33 -100 -65 -72 -55 -116 -23 -29 -175 -163 -124 -137 -157 -153 -138 -172 -70 0 -92 -88 -81 -65 -58 -27 -29 -49 -61 -92 -39 -11 -29 -32 -36 -54 -75 -164 -129 -69 -92 -68 -132 -105 -164
-244 -152 -108 -11 -21 -155 -145 -126 -104 -74 -38 -24 -14 -23 -182 -204 -183 -195 -179 -196 0 0 0 0 -157 -113 -118 -98 -34 -26 -25 -38 -76 -45 -48 -76 -21 -31 -40 -75 -33 -51 -58 -98 -71 -79 -63 -61 -183
-188 -58 -49 -6 -7 -89 -94 -69 -39 -53 -39 -21 -46 -55 -118 -127 -185 -160 -102 -177 0 0 -71 -111 -148 -103 -110 -121 -58 -29 -20 -21 -26 -57 -138 -23 -32 -33 -41 -37 -50 -55 -54 -118 -60 -214 -130 -191 -74
-84 -62 -24 -7 -136 -98 -62 -43 -43 -35 -31 -20 -26 -43 -164 -194 -187 -102 -100 -122 -138 0 -95 -113 -122 -120 -109 -96 -30 -33 -29 -17 -24 -102 -26 -31 -44 -54 -38 -46 -154 -169 -74 -47 -149 -115 -59 -199 -228
-105 -59 -93 -96 -59 -39 -43 -65 -69 -54 -51 -31 -48 -75 -209 -187 -163 -143 -135 -106 -139 0 0 -113 -70 -67 -74 -74 -30 -38 -39 -52 -30 -50 -29 -24 -21 -21 -32 -53 -145 -37 -69 -24 -111 -158 -183 -190 -18
-55 -10 -39 -98 -46 -68 -60 -40 -67 -57 -86 -76 -96 -134 -213 -175 -147 -134 -127 -78 -109 -97 0 -129 -106 -85 -66 -25 -33 -20 -36 -78 -25 -35 -53 -87 -11 -20 -15 -26 -66 -53 -188 -70 -50 -105 -206 -353 -84
-98 -31 -22 -37 -37 -83 -48 -50 -175 -106 -107 -112 -182 -312 -236 -179 -166 -144 -100 -85 -140 -78 -109 -60 -134 -179 -48 -38 -48 -34 -29 -60 -28 -37 -49 -17 -18 -26 -25 -24 -68 -42 -103 -225 -92 -123 -337 -433 -200
-30 -33 -45 -16 -21 -49 -43 -43 -183 -131 -122 -128 -183 -364 -319 -231 -201 -188 -131 -111 -68 -67 -88 -57 -220 -139 -51 -72 -83 -44 -32 -24 -46 -26 -26 -34 -32 -23 -11 -37 -31 -30 -158 -196 -261 -181 0 -183 -189
0 0 0 0 -161 -56 -45 -42 -287 -185 -167 -145 -115 -96 -356 -305 -212 -162 -155 0 -99 -65 -88 -67 -131 -63 -46 -47 -47 -49 -56 -37 -41 -62 -25 -57 -90 -44 -37 -57 -47 -28 -50 -233 -219 -304 0 -107 -122
0 -1 0 0 0 -88 0 0 -327 -272 -216 -188 -140 -117 -210 -279 -248 -209 -72 -11 0 -110 -109 -78 -113 -73 -74 -73 -47 -42 -42 -47 -72 -57 -48 -94 -108 -53 -30 -49 -51 -50 -32 -100 -240 -313 0 0 0
0 0 -1 0 0 0 0 -35 -25 -381 -284 -226 -206 -160 -131 -131 0 0 0 0 -21 0 -114 -114 -156 -115 -95 -68 -47 -82 -81 -69 -70 -77 -97 -95 -99 -84 -55 -44 -49 -33 -31 -42 -105 -175 0 0 0
0 0 -1 -41 0 0 0 0 -73 0 -384 -333 -256 -216 -174 -141 -89 -18 0 0 0 -182 -188 -204 -113 -170 -122 -145 -68 -82 -79 -74 -87 -74 -127 -143 -108 -100 -167 -58 -42 -35 -34 -37 -78 -170 0 0 0
0 0 0 0 0 0 0 0 -94 0 -232 -378 -400 -334 -241 -172 -141 -87 0 0 0 -68 -190 -226 -180 -197 -144 -143 -91 -101 -89 -82 -86 -93 -118 -142 -123 -114 -108 -82 -66 -39 -27 -25 -84 -182 0 0 0
0 0 0 0 0 0 0 0 0 -16 0 0 -447 -412 -344 -229 -177 -128 -83 0 0 0 -225 -201 -371 -204 -160 -140 -130 -167 -116 -85 -99 -118 -128 -182 -238 -175 -99 -186 -78 -52 -28 -15 -82 -161 -200 0 0
0 0 0 0 0 0 0 0 0 -40 -16 0 -37 -470 -403 -328 -187 -162 -111 0 0 -107 -222 -177 -339 -209 -167 -155 -182 -246 -144 -100 -106 -107 -183 -157 -206 -193 -90 -251 -138 -68 -32 -27 -74 -174 -214 -70 0
0 0 0 0 0 0 0 0 -14 0 0 -54 -73 -551 -513 -421 -297 -198 -133 -8 0 0 -222 -191 -328 -262 -164 -166 -151 -329 -215 -148 -136 -120 -127 -166 -172 -164 -292 -100 -114 -81 -46 -27 -54 -127 -219 -211 0
0 0 0 0 0 0 0 -11 0 0 -19 -251 -164 -154 -535 -488 -407 -265 -196 -173 -291 0 -330 -233 -350 -313 -247 -170 -162 -240 -295 -221 -196 -164 -161 -185 -166 -135 -112 -91 -206 -80 -53 -36 -41 -92 -222 -238 -260
0 0 0 0 0 0 0 -26 0 -8 -23 -232 -165 -116 -435 -441 -338 -291 -229 -198 -244 -255 -281 -323 -398 -327 -296 -201 -201 -205 -260 -245 -208 -192 -198 -216 -200 -165 -173 -98 -107 -103 -65 -44 -39 -82 -157 -252 -243
0 0 0 0 0 0 0 0 0 0 -24 -389 -270 -130 -80 -163 -338 -51 -118 -212 -200 -198 -226 -296 -459 -157 -309 -210 -193 -225 -248 -259 -242 -228 -217 -208 -225 -224 -174 -167 -116 -105 -80 -61 -53 -80 -112 -234 -173
0 0 0 0 0 0 0 0 0 0 0 -486 -397 -233 -137 -74 -61 -42 -55 -82 -142 -203 -192 -265 -379 -414 -355 -341 -221 -230 -245 -263 -290 -283 -279 -231 -215 -235 -226 -256 -329 -250 -128 -70 -64 -70 -107 -103 -117
Wind_Speed
nan nan nan 4 2 21 19 19 nan nan nan nan nan nan nan nan nan nan nan 10 10 8 9 10 14 15 15 15 16 13 14 13 11 11 14 14 14 14 10 12 14 19 18 17 12 5 1 2 3
nan nan nan nan nan nan nan nan nan nan nan nan nan nan nan nan 7 nan 5 6 8 8 10 13 16 16 16 14 15 17 15 12 11 13 13 11 10 5 6 11 14 16 17 14 8 5 5 4 3
nan 12 nan nan nan nan nan nan nan nan nan nan nan nan nan 9 nan nan 5 5 6 6 11 14 17 14 14 14 15 15 15 11 11 12 13 9 5 5 8 11 13 17 17 15 13 14 11 6 3
13 nan nan nan nan 21 nan nan nan nan nan nan nan nan nan nan nan 5 4 5 6 6 9 11 15 15 14 14 15 14 11 10 13 15 16 12 7 6 12 16 16 16 16 18 20 19 14 12 8
nan nan nan nan nan nan 26 nan nan nan nan nan nan nan nan nan 2 5 4 4 7 7 7 9 14 13 11 11 13 16 15 13 14 16 17 18 15 14 15 18 18 17 20 25 25 29 27 17 11
nan nan nan nan nan nan nan nan 12 18 nan nan nan nan nan 6 4 1 0 1 4 6 8 8 11 10 8 8 13 15 14 13 14 15 17 19 18 17 21 21 20 19 20 32 39 36 33 28 21
nan nan nan nan nan nan nan nan 15 nan nan nan nan nan nan 6 3 0 2 0 3 4 6 6 5 8 9 11 13 17 16 15 18 11 17 15 17 19 20 20 20 18 19 38 36 35 37 39 31
nan nan nan nan nan nan nan 13 8 12 13 nan nan nan nan 7 3 4 5 1 1 1 6 7 4 9 8 11 13 17 15 14 13 13 15 16 18 20 22 20 20 15 34 34 28 32 32 34 36
8 nan nan nan nan nan nan 10 15 11 nan nan nan nan nan 8 4 4 2 3 2 3 nan 7 7 9 11 12 16 13 13 16 15 17 17 16 21 25 24 28 25 31 29 25 24 24 27 29 26
8 15 nan 12 nan nan nan 7 5 8 nan nan nan nan nan 5 4 4 nan 6 5 6 nan 10 8 10 11 13 14 12 16 15 16 21 20 21 24 29 28 30 30 22 22 18 18 20 24 25 25
8 18 nan nan nan nan nan 7 5 5 9 nan nan nan nan 5 2 nan nan nan nan nan nan nan 8 10 10 12 12 12 18 16 20 20 17 22 26 27 26 25 24 21 19 18 18 18 23 26 26
nan nan nan nan 9 10 6 6 9 4 6 nan nan nan nan nan 3 nan nan nan nan nan nan nan nan 10 9 10 13 13 20 20 21 21 20 23 24 24 22 21 21 18 17 17 18 20 22 26 28
4 nan nan nan nan 12 10 20 16 8 13 8 7 nan nan nan nan nan nan nan nan nan nan nan nan 10 10 13 14 15 20 18 21 20 19 17 17 19 20 19 19 19 20 17 16 18 19 22 26
nan nan nan nan 9 11 11 16 13 15 5 6 8 7 nan nan nan 9 8 nan nan nan nan nan nan 11 9 13 15 16 19 19 19 19 19 15 17 18 17 19 21 19 20 20 18 18 16 19 19
nan 15 20 20 14 15 12 17 16 12 3 5 5 3 nan nan 10 7 5 nan nan nan nan nan 11 11 12 15 16 16 19 18 18 17 17 20 19 16 17 20 20 21 21 19 18 15 15 17 18
nan 16 16 19 18 13 13 17 15 6 3 6 7 4 nan 7 7 12 9 nan nan nan nan nan nan nan 13 16 16 16 18 18 15 15 18 21 20 20 18 18 17 18 19 20 17 17 16 16 15
nan nan nan 18 12 12 9 11 3 2 3 5 8 nan nan 4 8 12 nan nan nan nan nan 8 nan nan 11 16 17 18 17 17 16 13 14 16 17 19 16 14 14 15 14 15 16 13 13 nan nan
nan nan nan 14 15 19 14 13 7 1 3 6 8 8 nan nan 1 8 nan nan nan nan 8 7 9 8 10 15 17 18 16 17 15 13 12 12 13 15 14 16 16 16 15 14 12 9 nan 8 8
nan nan nan nan nan 19 17 10 3 7 4 7 9 10 nan nan nan nan nan nan nan nan 9 5 5 7 10 15 17 18 20 17 15 13 11 9 12 13 12 14 15 16 15 14 13 12 nan nan 10
nan nan nan nan nan nan nan nan 5 8 12 15 14 13 nan nan nan nan nan nan nan nan 9 6 5 5 10 13 17 17 20 18 15 14 12 9 10 11 12 14 17 17 16 14 13 12 nan nan nan
nan nan nan nan nan nan nan nan nan 8 5 7 10 14 14 nan nan nan nan nan nan nan nan nan 5 5 9 10 14 15 19 17 15 14 12 13 13 14 15 16 16 14 13 13 14 14 nan nan nan
nan nan nan nan nan nan nan nan nan nan 4 5 9 17 17 16 nan nan nan nan nan nan nan nan nan nan 8 7 12 12 17 16 17 14 12 13 13 14 15 16 16 15 16 17 19 20 nan nan nan
nan nan nan nan nan nan nan nan nan nan nan 10 16 18 19 17 nan nan nan nan nan nan nan nan nan nan 7 7 11 11 15 17 14 14 13 14 14 15 13 14 15 15 17 19 22 24 nan nan nan
nan nan nan nan nan nan nan nan nan nan nan nan nan 11 13 15 16 11 nan nan nan nan nan nan nan 9 7 5 9 11 10 12 13 15 15 15 12 13 14 13 13 14 17 20 23 24 nan nan nan
nan nan nan nan nan nan nan nan nan nan nan nan nan 9 11 11 11 10 11 nan nan nan nan nan nan 8 7 4 6 11 11 10 11 13 13 12 9 11 12 11 12 15 16 19 21 23 24 nan nan
nan nan nan nan nan nan nan nan nan nan nan nan nan nan 16 18 13 11 9 nan nan nan nan nan 11 9 7 5 5 8 9 10 10 10 9 9 7 8 9 9 11 15 17 18 19 19 20 21 nan
nan nan nan nan nan nan nan nan nan nan nan 26 9 10 15 17 17 13 11 12 nan nan nan 13 12 9 9 6 6 6 8 8 9 9 7 7 5 6 6 6 9 12 15 18 19 17 17 18 20
nan nan nan nan nan nan nan nan nan nan nan 23 9 10 19 21 19 16 10 11 16 nan nan nan 15 10 10 8 7 5 7 7 7 6 7 5 5 3 1 4 7 10 13 16 17 17 18 21 21
nan nan nan nan nan nan nan nan nan nan nan 13 6 7 20 22 14 7 8 12 14 21 22 nan 17 13 12 9 9 8 6 7 7 5 5 3 3 2 0 3 6 8 11 13 16 17 21 24 23
nan nan nan nan nan nan nan nan nan nan nan nan 13 12 12 20 16 9 8 10 12 17 21 20 17 13 11 10 10 7 8 6 6 6 4 3 1 3 1 2 6 6 8 11 16 20 24 26 29
Wind_Direction
nan nan nan 289 343 122 133 139 nan nan nan nan nan nan nan nan nan nan nan 28 339 337 5 9 3 1 354 355 347 345 343 347 338 333 317 309 308 296 319 341 343 350 359 354 343 351 276 256 309
nan nan nan nan nan nan nan nan nan nan nan nan nan nan nan nan 124 nan 51 31 326 342 357 18 8 1 354 357 354 354 356 357 352 340 331 325 336 2 313 343 353 11 16 11 15 112 146 161 202
nan 8 nan nan nan nan nan nan nan nan nan nan nan nan nan 135 nan nan 56 337 321 343 5 15 351 352 356 2 3 358 6 12 19 13 357 336 341 11 336 336 28 43 39 38 73 77 78 87 109
4 nan nan nan nan 128 nan nan nan nan nan nan nan nan nan nan nan 56 339 333 329 2 19 357 350 351 4 9 15 18 22 31 32 27 29 28 44 31 52 64 66 63 60 61 59 72 81 90 114
nan nan nan nan nan nan 164 nan nan nan nan nan nan nan nan nan 218 303 334 344 347 7 10 1 355 355 7 15 20 30 30 34 24 38 36 40 65 74 66 64 71 71 70 74 77 78 78 85 99
nan nan nan nan nan nan nan nan 136 141 nan nan nan nan nan 137 266 83 346 338 17 11 1 5 355 360 17 26 36 36 27 37 48 48 42 47 54 60 65 64 68 72 82 87 86 79 80 75 63
nan nan nan nan nan nan nan nan 139 nan nan nan nan nan nan 127 151 221 237 354 28 2 359 15 12 44 27 31 35 41 41 50 53 53 45 58 61 66 70 85 82 83 89 102 88 79 77 81 76
nan nan nan nan nan nan nan 140 127 157 155 nan nan nan nan 27 118 193 214 122 38 27 32 36 67 82 74 73 43 46 53 63 65 73 72 72 89 91 88 91 84 92 95 110 92 75 77 79 73
37 nan nan nan nan nan nan 136 142 156 nan nan nan nan nan 333 267 189 237 104 132 94 nan 67 89 86 77 75 77 68 77 70 77 79 85 74 83 82 89 88 92 86 78 86 82 81 76 78 75
63 72 nan 112 nan nan nan 126 157 157 nan nan nan nan nan 295 335 3 nan 44 67 76 nan 75 104 89 85 86 71 66 88 80 78 82 83 79 87 86 89 97 96 91 96 83 75 81 80 77 79
71 77 nan nan nan nan nan 163 140 220 126 nan nan nan nan 280 28 nan nan nan nan nan nan nan 104 94 89 88 61 68 94 88 91 90 85 85 87 89 93 90 86 85 85 75 67 70 73 70 72
nan nan nan nan 142 148 152 181 144 154 146 nan nan nan nan nan 35 nan nan nan nan nan nan nan nan 98 80 71 68 88 95 94 96 90 94 88 89 94 95 91 91 96 82 71 70 69 65 67 73
139 nan nan nan nan 169 162 159 146 151 189 247 264 nan nan nan nan nan nan nan nan nan nan nan nan 93 91 81 72 91 100 94 93 96 103 95 95 95 91 89 86 90 88 85 77 69 72 73 78
nan nan nan nan 166 141 167 162 146 156 212 264 325 287 nan nan nan 199 200 nan nan nan nan nan nan 101 98 83 86 96 94 90 99 107 108 108 102 92 92 95 91 87 86 85 81 72 70 76 78
nan 214 179 165 152 154 191 164 149 136 108 353 8 299 nan nan 223 225 192 nan nan nan nan nan 110 110 107 91 86 93 89 91 101 99 95 98 99 104 104 94 91 87 83 88 92 91 89 85 85
nan 214 194 152 157 168 187 154 173 134 54 47 6 17 nan 199 207 197 196 nan nan nan nan nan nan nan 106 97 90 90 96 93 99 94 93 102 111 108 95 87 83 89 93 89 87 89 88 82 80
nan nan nan 201 155 192 166 125 122 69 22 45 47 nan nan 163 196 202 nan nan nan nan nan 137 nan nan 102 99 97 95 98 98 110 112 107 105 103 102 98 91 84 82 84 88 87 89 71 nan nan
nan nan nan 207 174 180 159 163 180 302 10 15 35 58 nan nan 34 214 nan nan nan nan 157 155 127 117 110 113 106 107 105 109 107 107 102 100 92 89 94 89 85 79 70 76 82 80 nan 55 51
nan nan nan nan nan 193 180 181 316 4 6 350 39 4 nan nan nan nan nan nan nan nan 179 150 136 120 129 120 114 108 99 102 107 102 98 95 90 78 73 72 71 68 67 65 64 51 nan nan 50
nan nan nan nan nan nan nan nan 218 356 23 15 14 16 nan nan nan nan nan nan nan nan 162 150 117 131 120 123 115 108 99 100 104 93 90 85 85 83 70 65 62 50 47 52 53 48 nan nan nan
nan nan nan nan nan nan nan nan nan 188 133 66 50 28 13 nan nan nan nan nan nan nan nan nan 131 137 137 119 124 122 112 109 113 105 104 92 80 77 70 64 64 54 44 35 32 30 nan nan nan
nan nan nan nan nan nan nan nan nan nan 112 84 61 37 23 10 nan nan nan nan nan nan nan nan nan nan 141 111 121 120 108 102 107 108 105 100 89 81 71 65 53 44 36 27 30 31 nan nan nan
nan nan nan nan nan nan nan nan nan nan nan 104 47 28 21 15 nan nan nan nan nan nan nan nan nan nan 151 120 115 120 117 112 115 110 109 104 103 98 85 66 56 38 32 21 18 18 nan nan nan
nan nan nan nan nan nan nan nan nan nan nan nan nan 33 16 10 6 328 nan nan nan nan nan nan nan 174 163 125 113 111 110 118 120 117 116 116 114 104 89 65 57 41 29 18 16 14 nan nan nan
nan nan nan nan nan nan nan nan nan nan nan nan nan 10 358 356 8 334 276 nan nan nan nan nan nan 170 169 144 111 105 114 111 108 115 123 124 123 106 85 62 48 40 32 19 10 10 9 nan nan
nan nan nan nan nan nan nan nan nan nan nan nan nan nan 340 344 354 349 277 nan nan nan nan nan 211 182 176 170 133 113 113 127 127 124 131 129 127 111 86 58 38 33 28 17 12 13 12 13 nan
nan nan nan nan nan nan nan nan nan nan nan 198 191 310 324 336 334 349 321 251 nan nan nan 214 213 197 180 171 173 133 122 113 121 124 135 140 142 124 101 38 25 22 21 14 12 18 20 24 30
nan nan nan nan nan nan nan nan nan nan nan 199 216 311 322 319 309 314 320 285 231 nan nan nan 206 193 195 179 177 160 132 132 130 147 123 133 151 148 133 17 11 11 16 13 17 25 25 25 25
nan nan nan nan nan nan nan nan nan nan nan 190 188 326 8 1 323 299 325 306 250 235 235 nan 219 200 195 191 181 180 167 143 136 132 128 145 189 193 41 9 354 10 12 18 20 21 21 23 22
nan nan nan nan nan nan nan nan nan nan nan nan 140 80 39 4 351 252 261 255 265 236 238 240 228 224 206 200 197 186 193 180 147 132 153 215 249 225 222 348 1 13 16 13 17 22 26 23 20